| time (UTC) | temp F | wind direction | speed MPH | gust MPH | rain 1hr in | rain 24hr in | rain mn in | humidity % | barometer mb |
| 20260505010005 | 34 | 335 | 0.0 | 0.0 | 0.00 | 0.28 | 0.01 | 91 | 1000.4 |
| 20260505005005 | 34 | 335 | 0.0 | 0.0 | 0.01 | 0.28 | 0.01 | 90 | 1000.3 |
| 20260505003005 | 34 | 335 | 0.0 | 0.0 | 0.01 | 0.28 | 0.01 | 89 | 1000.4 |
| 20260505002005 | 34 | 336 | 0.0 | 0.0 | 0.01 | 0.28 | 0.01 | 89 | 1000.5 |
| 20260505000004 | 34 | 225 | 0.0 | 0.0 | 0.01 | 0.28 | 0.01 | 89 | 1000.5 |
| 20260504235005 | 34 | 260 | 0.0 | 0.0 | 0.00 | 0.28 | 0.00 | 88 | 1000.5 |
| 20260504231005 | 34 | 270 | 0.0 | 0.0 | 0.00 | 0.28 | 0.00 | 86 | 1000.0 |
| 20260504230005 | 34 | 272 | 0.0 | 0.0 | 0.00 | 0.28 | 0.00 | 85 | 1000.0 |
| 20260504225004 | 34 | 272 | 0.0 | 0.0 | 0.00 | 0.28 | 0.00 | 85 | 1000.1 |
| 20260504224005 | 34 | 269 | 0.0 | 0.0 | 0.00 | 0.28 | 0.00 | 84 | 1000.0 |
| 20260504222005 | 35 | 286 | 0.0 | 0.0 | 0.00 | 0.28 | 0.00 | 83 | 999.8 |
| 20260504221005 | 35 | 261 | 0.0 | 0.0 | 0.00 | 0.28 | 0.00 | 83 | 999.8 |
| 20260504220004 | 36 | 270 | 0.0 | 0.0 | 0.00 | 0.28 | 0.00 | 83 | 999.7 |
| 20260504215005 | 35 | 232 | 0.0 | 0.0 | 0.00 | 0.28 | 0.28 | 82 | 999.7 |
| 20260504214005 | 36 | 300 | 0.0 | 0.0 | 0.00 | 0.28 | 0.28 | 81 | 999.8 |
| 20260504213005 | 37 | 196 | 0.0 | 0.0 | 0.00 | 0.28 | 0.28 | 80 | 999.6 |
| 20260504211005 | 37 | 207 | 0.0 | 0.0 | 0.00 | 0.28 | 0.28 | 80 | 999.6 |
| 20260504210005 | 37 | 260 | 0.0 | 0.0 | 0.00 | 0.28 | 0.28 | 79 | 999.6 |
| 20260504205005 | 37 | 198 | 0.0 | 0.0 | 0.00 | 0.28 | 0.28 | 79 | 999.6 |
| 20260504204005 | 37 | 262 | 0.0 | 0.0 | 0.00 | 0.28 | 0.28 | 79 | 999.4 |
| 20260504203005 | 37 | 252 | 0.0 | 0.0 | 0.00 | 0.28 | 0.28 | 79 | 999.5 |
| 20260504202005 | 38 | 259 | 0.0 | 0.0 | 0.00 | 0.28 | 0.28 | 78 | 999.6 |
| 20260504201005 | 38 | 244 | 0.0 | 0.0 | 0.00 | 0.28 | 0.28 | 76 | 999.6 |
| 20260504200005 | 38 | 236 | 0.0 | 0.0 | 0.00 | 0.28 | 0.28 | 75 | 999.5 |
| 20260504194004 | 38 | 229 | 0.0 | 0.0 | 0.00 | 0.28 | 0.28 | 76 | 999.4 |
| 20260504193004 | 38 | 260 | 0.0 | 0.0 | 0.00 | 0.28 | 0.28 | 76 | 999.3 |
| 20260504192005 | 38 | 254 | 0.0 | 0.0 | 0.00 | 0.28 | 0.28 | 75 | 999.2 |
| 20260504190005 | 38 | 215 | 0.0 | 0.0 | 0.00 | 0.28 | 0.28 | 76 | 998.9 |
| 20260504185005 | 39 | 226 | 0.0 | 0.0 | 0.00 | 0.28 | 0.28 | 76 | 999.0 |
| 20260504184006 | 39 | 266 | 0.0 | 0.0 | 0.00 | 0.28 | 0.28 | 75 | 998.8 |
| 20260504183004 | 39 | 231 | 0.0 | 0.0 | 0.00 | 0.28 | 0.28 | 75 | 998.7 |
| 20260504175006 | 40 | 246 | 0.0 | 0.0 | 0.00 | 0.28 | 0.28 | 78 | 998.7 |
| 20260504174006 | 40 | 197 | 0.0 | 0.0 | 0.00 | 0.28 | 0.28 | 78 | 998.6 |
| 20260504173005 | 40 | 284 | 0.0 | 0.0 | 0.00 | 0.28 | 0.28 | 79 | 998.5 |
| 20260504172005 | 40 | 274 | 0.0 | 0.0 | 0.00 | 0.28 | 0.28 | 78 | 998.3 |
| 20260504151006 | 42 | 337 | 0.0 | 0.0 | 0.00 | 0.28 | 0.28 | 80 | 997.9 |
| 20260504141006 | 42 | 253 | 0.0 | 0.0 | 0.00 | 0.28 | 0.28 | 82 | 997.7 |
| 20260504082005 | 36 | 313 | 0.0 | 0.0 | 0.07 | 0.14 | 0.14 | 88 | 996.2 |
| 20260504081005 | 36 | 313 | 0.0 | 0.0 | 0.07 | 0.13 | 0.13 | 87 | 996.1 |
| 20260504050005 | 38 | 167 | 0.0 | 0.0 | 0.00 | 0.02 | 0.00 | 87 | 996.9 |
| 20260504045005 | 38 | 67 | 0.0 | 0.0 | 0.00 | 0.02 | 0.00 | 87 | 997.2 |
| 20260504044005 | 38 | 96 | 0.0 | 0.0 | 0.00 | 0.02 | 0.00 | 87 | 997.3 |
| 20260504043005 | 37 | 53 | 0.0 | 0.0 | 0.00 | 0.02 | 0.00 | 87 | 997.4 |
| 20260504042005 | 37 | 49 | 0.0 | 0.0 | 0.00 | 0.02 | 0.00 | 88 | 997.7 |
| 20260504041005 | 37 | 9 | 0.0 | 0.0 | 0.00 | 0.02 | 0.00 | 87 | 997.8 |
| 20260504040005 | 37 | 69 | 0.0 | 0.0 | 0.00 | 0.02 | 0.00 | 87 | 997.8 |
| 20260504035006 | 37 | 42 | 0.0 | 0.0 | 0.00 | 0.03 | 0.00 | 87 | 997.9 |
| 20260504033005 | 37 | 96 | 0.0 | 0.0 | 0.00 | 0.04 | 0.00 | 84 | 998.1 |
| 20260504032005 | 37 | 9 | 0.0 | 0.0 | 0.00 | 0.04 | 0.00 | 83 | 998.4 |
| 20260504031005 | 38 | 321 | 0.0 | 0.0 | 0.00 | 0.04 | 0.00 | 82 | 998.4 |
| 20260504030004 | 38 | 74 | 0.0 | 0.0 | 0.00 | 0.04 | 0.00 | 82 | 998.6 |
| 20260504025005 | 38 | 69 | 0.0 | 0.0 | 0.00 | 0.04 | 0.00 | 81 | 998.7 |
| 20260504024005 | 39 | 321 | 0.0 | 0.0 | 0.00 | 0.04 | 0.00 | 80 | 998.8 |
| 20260504022005 | 39 | 286 | 0.0 | 0.0 | 0.00 | 0.08 | 0.00 | 79 | 999.0 |
| 20260504021006 | 39 | 68 | 0.0 | 0.0 | 0.00 | 0.09 | 0.00 | 78 | 999.0 |
| 20260504020005 | 39 | 209 | 0.0 | 0.0 | 0.00 | 0.09 | 0.00 | 78 | 999.0 |
| 20260504015005 | 39 | 209 | 0.0 | 0.0 | 0.00 | 0.09 | 0.00 | 79 | 999.2 |
| 20260504013005 | 40 | 209 | 0.0 | 0.0 | 0.00 | 0.09 | 0.00 | 79 | 999.3 |
| 20260504012005 | 40 | 209 | 0.0 | 0.0 | 0.00 | 0.09 | 0.00 | 79 | 999.6 |